[[{"header":{"parameterUnit":"m.s-1","parameterCategory":1,"la1":30.2991,"la2":30.254,"lo1":-89.0895,"lo2":-89.0444,"dy":0.0017,"dx":0.0017,"nx":28,"ny":28,"refTime":"2024-07-27T03:00:00:Z","depth":0,"parameterNumber":2,"parameterNumberName":"U-component_of_WINDS"},"data":[0,0,0,0,0,0,0,0,0,0,0,0,0,0,0,0,0,0,0,0,0,0,0,0,0,0,0,0,0,0,0,0,0,0,0,0,0,0,0,0,0,0,0,0,0,0,0,0,0,0,0,0,0,0,0,0,0,0,-5.3779,-5.3779,0,-5.3745,-5.3744,-5.3744,-5.3603,-5.36,-5.3596,-5.3593,-5.356,-5.3562,-5.3564,0,0,0,0,0,0,0,0,0,0,0,0,0,-5.3725,-5.3727,-5.3779,-5.3779,-5.3778,-5.3745,-5.3744,-5.3744,-5.3603,-5.36,-5.3596,-5.3592,-5.3559,-5.3562,-5.3564,0,0,0,0,0,0,0,0,0,0,0,0,0,-5.3726,-5.3728,-5.3779,-5.3704,-5.3697,-5.3745,-5.3744,-5.3744,-5.3604,-5.3599,-5.3595,-5.359,-5.3558,-5.3561,-5.3565,-5.3682,0,0,-5.3574,-5.3576,0,0,0,0,0,0,0,0,-5.3726,-5.3728,-5.3716,-5.371,-5.3702,-5.3673,-5.3713,-5.3723,-5.3606,-5.364,-5.3593,-5.3588,-5.3602,-5.3601,-5.3605,-5.3681,-5.3679,-5.3575,-5.3577,-5.3578,-5.3579,0,0,0,0,0,0,0,-5.3726,-5.3728,-5.3766,-5.3716,-5.3707,-5.3673,-5.3667,-5.3714,-5.3649,-5.3636,-5.3626,-5.3624,-5.3597,-5.3602,-5.3603,-5.3679,-5.3575,-5.3577,-5.3579,-5.3581,-5.3846,-5.385,0,0,0,0,0,0,-5.3736,-5.3729,-5.3767,-5.3764,-5.3702,-5.3678,-5.3672,-5.3687,-5.3648,-5.3637,-5.3628,-5.3617,-5.3599,-5.36,-5.3602,-5.3733,-5.3578,-5.3581,-5.3583,-5.3841,-5.3847,-5.3852,0,0,0,0,0,0,-5.3736,-5.3741,-5.3768,-5.3744,-5.3745,-5.3684,-5.3702,-5.3689,-5.3694,-5.3641,-5.3629,-5.3646,-5.3596,-5.3597,-5.3662,-5.373,-5.3582,-5.3585,-5.3835,-5.3842,-5.385,-5.4,0,0,0,0,0,0,-5.3735,-5.3742,-5.3785,-5.3746,-5.3747,-5.3829,-5.3707,-5.3692,-5.37,-5.3686,-5.3654,-5.3645,-5.3592,-5.3658,-5.3666,-5.3732,-5.3588,-5.3828,-5.3838,-5.3847,-5.3988,-5.4011,-5.4031,0,0,0,0,0,-5.3733,-5.383,-5.3788,-5.3794,-5.38,-5.3834,-5.3834,-5.377,-5.3706,-5.3749,-5.3715,-5.3646,-5.3723,-5.3666,-5.3673,-5.3741,-5.3823,-5.3835,-5.3846,-5.3978,-5.4007,-5.4031,0,0,0,0,0,0,-5.388,-5.3824,-5.3777,-5.3864,-5.3854,-5.381,-5.3862,-5.3803,-5.3812,-5.3798,-5.372,-5.3715,-5.379,-5.3773,-5.3711,-5.3852,-5.3761,-5.3775,-5.3859,-5.3886,-5.3907,-5.3907,-5.3591,0,0,0,0,0,-5.3923,-5.3954,-5.3903,-5.3985,-5.3983,-5.3924,-5.3936,-5.3888,-5.3875,-5.3871,-5.3841,-5.3832,-5.3854,-5.387,-5.3887,-5.3987,-5.3976,-5.4037,-5.4059,-5.4077,-5.4088,-5.4136,-5.4161,-5.389,-5.389,-5.389,0,0,-5.4011,-5.3984,-5.4008,-5.4014,-5.4001,-5.4034,-5.3921,-5.3963,-5.3986,-5.3877,-5.3935,-5.3914,-5.3899,-5.3981,-5.4015,-5.3969,-5.4161,-5.4091,-5.4106,-5.4107,-5.415,-5.4176,-5.4199,-5.3898,-5.3896,-5.3895,0,0,-5.4187,-5.4171,-5.4235,-5.4225,-5.4206,-5.4166,-5.4182,-5.4146,-5.4127,-5.4184,-5.4102,-5.4131,-5.4171,-5.4162,-5.4163,-5.4336,-5.4271,-5.4345,-5.4455,-5.4503,-5.4524,-5.4542,-5.46,-5.4622,-5.4357,-5.4357,-5.4357,0,-5.4298,-5.4344,-5.4276,-5.4321,-5.4325,-5.4228,-5.4292,-5.4285,-5.4274,-5.4279,-5.4227,-5.4273,-5.4257,-5.4333,-5.4375,-5.4381,-5.4395,-5.4345,-5.4527,-5.4544,-5.456,-5.4614,-5.4637,-5.4366,-5.4365,-5.4364,-5.4363,0,-5.448,-5.4514,-5.4569,-5.4558,-5.4569,-5.4624,-5.4563,-5.4583,-5.4535,-5.45,-5.4559,-5.4536,-5.4545,-5.4561,-5.4515,-5.4631,-5.4602,-5.4541,-5.4447,-5.4596,-5.4645,-5.4666,-5.4378,-5.4375,-5.4372,-5.437,0,0,-5.4745,-5.4696,-5.4716,-5.4709,-5.4682,-5.4706,-5.4757,-5.4765,-5.4781,-5.4778,-5.4816,-5.4853,-5.4794,-5.4796,-5.4748,-5.4791,-5.4925,-5.4723,-5.4721,-5.4757,-5.5047,-5.509,-5.5115,-5.4884,-5.4888,-5.4891,-5.5046,0,-5.4909,-5.499,-5.493,-5.5021,-5.505,-5.4959,-5.5002,-5.499,-5.496,-5.4981,-5.4948,-5.4973,-5.4896,-5.4896,-5.4934,-5.49,-5.4981,-5.4889,-5.4916,-5.4918,-5.4918,-5.5141,-5.5187,-5.5335,-5.5066,-5.5069,-5.5071,0,-5.511,-5.5113,-5.5207,-5.517,-5.518,-5.522,-5.5221,-5.5243,-5.5228,-5.5203,-5.5204,-5.5146,-5.5192,-5.5104,-5.5166,-5.5104,-5.5113,-5.5098,-5.5103,-5.5098,-5.5,-5.5139,-5.5381,-5.5401,-5.5102,-5.5099,-5.5097,0,-5.5288,-5.5316,-5.5374,-5.5372,-5.5333,-5.5362,-5.5348,-5.5327,-5.5335,-5.5338,-5.5341,-5.5351,-5.5354,-5.5363,-5.5307,-5.5249,-5.5375,-5.5284,-5.5353,-5.5355,-5.538,-5.5378,-5.5622,-5.5395,-5.5394,-5.5394,-5.5393,0,-5.5474,-5.5534,-5.5453,-5.5488,-5.5552,-5.5484,-5.5549,-5.5525,-5.5508,-5.5537,-5.5462,-5.5491,-5.5418,-5.544,-5.5398,-5.5453,-5.5457,-5.5437,-5.5424,-5.5441,-5.5443,-5.5441,-5.5428,-5.54,-5.5398,-5.5397,-5.5396,0,-5.5681,-5.563,-5.5686,-5.5645,-5.5636,-5.5684,-5.5648,-5.5679,-5.5645,-5.5683,-5.5688,-5.5634,-5.5655,-5.5602,-5.5617,-5.5588,-5.5666,-5.564,-5.5671,-5.5661,-5.5732,-5.5724,-5.5979,-5.6007,-5.5767,-5.577,-5.5772,0,-5.58,-5.5843,-5.5806,-5.5819,-5.5808,-5.5831,-5.5838,-5.5774,-5.5784,-5.5769,-5.5802,-5.5817,-5.5825,-5.5864,-5.5826,-5.5836,-5.5806,-5.5895,-5.5807,-5.5821,-5.5801,-5.5797,-5.58,-5.5912,-5.5915,-5.5917,-5.5919,0,-5.6016,-5.5988,-5.6001,-5.6005,-5.6015,-5.6016,-5.6011,-5.6026,-5.5957,-5.5973,-5.5993,-5.5999,-5.6013,-5.6028,-5.603,-5.6015,-5.5955,-5.5948,-5.5963,-5.5978,-5.5992,-5.598,-5.5715,-5.5941,-5.5939,-5.5937,-5.5936,-5.5935,-5.6179,-5.6212,-5.619,-5.6206,-5.6195,-5.6192,-5.6218,-5.6187,-5.6202,-5.6206,-5.6169,-5.6196,-5.6179,-5.6174,-5.6166,-5.6187,-5.6146,-5.617,-5.6175,-5.6181,-5.619,-5.5994,-5.6188,-5.6187,-5.6186,-5.6186,-5.6185,0,-5.6387,-5.6368,-5.6384,-5.6378,-5.6391,-5.6334,-5.6326,-5.634,-5.6364,-5.6353,-5.6362,-5.6384,-5.6399,-5.6362,-5.6371,-5.6394,-5.6367,-5.6398,-5.6393,-5.639,-5.6229,-5.6212,-5.642,-5.642,-5.642,-5.642,-5.642,-5.642,-5.6496,-5.6547,-5.6517,-5.6562,-5.6543,-5.6568,-5.6567,-5.6564,-5.6554,-5.6581,-5.6592,-5.6568,-5.6547,-5.6553,-5.6563,-5.6552,-5.6557,-5.6597,-5.6576,-5.6425,-5.6402,-5.638,-5.6363,-5.66,-5.66,-5.6734,-5.6736,-5.6737]},{"header":{"parameterUnit":"m.s-1","parameterCategory":1,"la1":30.2991,"la2":30.254,"lo1":-89.0895,"lo2":-89.0444,"dy":0.0017,"dx":0.0017,"nx":28,"ny":28,"refTime":"2024-07-27T03:00:00:Z","depth":0,"parameterNumber":3,"parameterNumberName":"V-component_of_WINDS"},"data":[0,0,0,0,0,0,0,0,0,0,0,0,0,0,0,0,0,0,0,0,0,0,0,0,0,0,0,0,0,0,0,0,0,0,0,0,0,0,0,0,0,0,0,0,0,0,0,0,0,0,0,0,0,0,0,0,0,0,2.5267,2.5268,0,2.5372,2.5374,2.5375,2.5373,2.5372,2.5371,2.5369,2.5473,2.5477,2.5481,0,0,0,0,0,0,0,0,0,0,0,0,0,2.506,2.5064,2.5267,2.5268,2.5269,2.5372,2.5374,2.5375,2.5374,2.5372,2.537,2.5369,2.5472,2.5477,2.5482,0,0,0,0,0,0,0,0,0,0,0,0,0,2.5156,2.5065,2.5266,2.5281,2.5283,2.5372,2.5374,2.5375,2.5374,2.5372,2.537,2.5368,2.5471,2.5476,2.5482,2.5562,0,0,2.5501,2.5504,0,0,0,0,0,0,0,0,2.5151,2.5164,2.5278,2.528,2.5283,2.5358,2.5339,2.5438,2.5375,2.534,2.5369,2.5367,2.5436,2.5445,2.5469,2.5567,2.5571,2.5502,2.5505,2.5508,2.551,0,0,0,0,0,0,0,2.5144,2.5159,2.5308,2.5279,2.5283,2.5281,2.5293,2.5358,2.5398,2.5342,2.5343,2.5355,2.5437,2.5464,2.5472,2.5573,2.5502,2.5507,2.5511,2.5513,2.5742,2.5744,0,0,0,0,0,0,2.5135,2.5154,2.5305,2.5311,2.521,2.5287,2.5299,2.5336,2.5398,2.5405,2.5357,2.5355,2.5454,2.5465,2.5475,2.5573,2.5508,2.5514,2.5517,2.5739,2.5742,2.5745,0,0,0,0,0,0,2.513,2.5148,2.5301,2.5233,2.5252,2.5293,2.5333,2.5339,2.5365,2.5409,2.5415,2.5377,2.5453,2.5467,2.5541,2.5577,2.5516,2.5522,2.5736,2.574,2.5743,2.5769,0,0,0,0,0,0,2.5124,2.5147,2.5178,2.5233,2.5256,2.5366,2.5336,2.5343,2.5376,2.5374,2.5429,2.5436,2.5452,2.5532,2.5547,2.5584,2.5527,2.5733,2.5738,2.5742,2.5765,2.5773,2.578,0,0,0,0,0,2.5117,2.518,2.518,2.5198,2.5296,2.5368,2.538,2.5399,2.5379,2.5411,2.5439,2.5434,2.5571,2.5539,2.5557,2.5596,2.5731,2.5737,2.5742,2.5762,2.5772,2.578,0,0,0,0,0,0,2.5126,2.5188,2.5188,2.5271,2.5314,2.5367,2.5407,2.5409,2.5458,2.5454,2.5474,2.5486,2.556,2.5585,2.555,2.5677,2.5648,2.5657,2.5658,2.5667,2.5674,2.5667,2.5532,0,0,0,0,0,2.5138,2.5193,2.5243,2.5311,2.5333,2.5367,2.5398,2.541,2.5455,2.5473,2.5506,2.5549,2.5602,2.5636,2.5686,2.5769,2.5781,2.5804,2.5812,2.5818,2.5825,2.5871,2.5882,2.5762,2.5762,2.5762,0,0,2.5163,2.5203,2.5236,2.5314,2.5349,2.5404,2.5382,2.5441,2.5481,2.5481,2.5554,2.558,2.5629,2.5708,2.5744,2.5731,2.5861,2.5825,2.5829,2.5833,2.5878,2.5889,2.5899,2.5766,2.5765,2.5765,0,0,2.5236,2.5272,2.5334,2.537,2.5423,2.5445,2.546,2.5514,2.5531,2.5605,2.5606,2.5654,2.5744,2.5779,2.5809,2.5897,2.5895,2.5913,2.5951,2.5996,2.6005,2.6014,2.6045,2.6056,2.592,2.592,2.592,0,2.526,2.5344,2.5365,2.5425,2.5459,2.5463,2.5525,2.5558,2.5625,2.5648,2.5632,2.5747,2.578,2.5867,2.5889,2.5913,2.593,2.5907,2.6002,2.6011,2.6019,2.605,2.6061,2.5922,2.5922,2.5922,2.5921,0,2.5371,2.5429,2.5472,2.5539,2.5577,2.5638,2.5667,2.5703,2.5711,2.5735,2.5809,2.585,2.5909,2.5931,2.5938,2.6019,2.601,2.5998,2.597,2.6032,2.6061,2.6073,2.5925,2.5924,2.5924,2.5923,0,0,2.5452,2.5531,2.5546,2.5577,2.5637,2.5682,2.5742,2.5802,2.5833,2.5879,2.593,2.6006,2.5997,2.603,2.6042,2.6081,2.6148,2.6065,2.6066,2.6079,2.6241,2.6249,2.6263,2.6147,2.615,2.6151,2.6237,0,2.5533,2.5642,2.5662,2.5757,2.5811,2.5816,2.5868,2.591,2.5934,2.5982,2.6007,2.6062,2.6044,2.6065,2.6104,2.6132,2.6181,2.6126,2.6194,2.6196,2.6182,2.6278,2.6287,2.6366,2.6248,2.625,2.6252,0,2.5641,2.5692,2.5792,2.5846,2.5869,2.5916,2.5973,2.6019,2.6067,2.6081,2.6119,2.6127,2.6189,2.6158,2.6243,2.6205,2.6234,2.6252,2.6256,2.6263,2.6228,2.6288,2.6391,2.6403,2.6269,2.6268,2.6267,0,2.5691,2.5784,2.5857,2.5883,2.5947,2.598,2.6008,2.6053,2.6088,2.6137,2.616,2.6215,2.6245,2.6287,2.6308,2.6284,2.6393,2.6363,2.6406,2.6405,2.6428,2.6427,2.6538,2.6447,2.6447,2.6446,2.6446,0,2.5779,2.584,2.588,2.5925,2.5994,2.6016,2.6083,2.611,2.6151,2.62,2.6207,2.6252,2.6278,2.6328,2.6345,2.6413,2.6426,2.6439,2.6443,2.6439,2.6437,2.6458,2.6453,2.6449,2.6449,2.6448,2.6448,0,2.5847,2.5876,2.5956,2.601,2.6025,2.6074,2.612,2.6163,2.6187,2.6249,2.6265,2.6301,2.636,2.6386,2.6457,2.6469,2.6547,2.6547,2.6532,2.6533,2.6574,2.657,2.6703,2.6722,2.6618,2.6618,2.6619,0,2.5901,2.5949,2.6009,2.6043,2.6073,2.6127,2.6163,2.6187,2.6224,2.6282,2.6318,2.6377,2.6426,2.6518,2.6551,2.6606,2.6607,2.665,2.6615,2.661,2.6608,2.6605,2.661,2.6656,2.6657,2.6658,2.6659,0,2.5994,2.6007,2.6059,2.6117,2.616,2.6207,2.6252,2.6279,2.631,2.6351,2.6412,2.6449,2.6523,2.6582,2.6639,2.6666,2.6668,2.6669,2.6682,2.6678,2.6668,2.6675,2.6549,2.6666,2.6665,2.6665,2.6664,2.6664,2.6057,2.61,2.615,2.6208,2.6245,2.6287,2.6331,2.636,2.6412,2.6475,2.6485,2.655,2.6596,2.6673,2.6703,2.6753,2.6743,2.6761,2.6766,2.677,2.6773,2.666,2.6764,2.6763,2.6763,2.6763,2.6763,0,2.6151,2.6184,2.6237,2.6301,2.6347,2.6346,2.6396,2.6434,2.6491,2.6535,2.6583,2.6653,2.6709,2.6747,2.6804,2.6837,2.6839,2.6851,2.6849,2.6855,2.6779,2.6762,2.6848,2.6848,2.6848,2.6848,2.6848,2.6848,2.6206,2.6279,2.6297,2.6388,2.6419,2.6484,2.6513,2.6551,2.6586,2.6665,2.6712,2.6737,2.6778,2.6838,2.689,2.6899,2.692,2.6933,2.6942,2.6869,2.6861,2.6852,2.6837,2.6937,2.6937,2.7014,2.7015,2.7015]}]]